Regional Weather Roundup
Issued by NWS

Home | Current Version | Previous Version | Text Only | Print | Product List | Glossary On
Versions: 1 2 3 4 5 6 7 8 9 10 11 12 13 14 15 16 17 18 19 20 21 22 23 24 25 26 27 28 29 30 31 32 33 34 35 36 37 38 39 40 41 42 43 44 45 46 47 48 49 50
000
ASUS43 KMKX 091121
RWRWI

WISCONSIN REGIONAL WEATHER ROUNDUP
NATIONAL WEATHER SERVICE MILWAUKEE/SULLIVAN WI
500 AM CST TUE FEB 09 2016

NOTE: "FAIR" INDICATES FEW OR NO CLOUDS BELOW 12,000 FEET WITH NO
SIGNIFICANT WEATHER AND/OR OBSTRUCTIONS TO VISIBILITY.

WIZ001-002-006>008-014>016-023>028-091200-
NORTHWEST WISCONSIN

CITY           SKY/WX    TMP DP  RH WIND       PRES   REMARKS
SUPERIOR ARPT  CLOUDY     5  -3  69 N9        30.06R WCI  -9
ASHLAND        CLOUDY     9   5  84 N12       29.96R FOG     WCI  -6
HAYWARD        CLOUDY     3  -3  76 VRB7      29.94R WCI  -9
SIREN          PTCLDY     3  -4  72 N12       30.02R WCI -13
CUMBERLAND     CLOUDY     3  -4  72 N15G22    29.96R WCI -15
RICE LAKE      FLURRIES   5  -2  73 NW9       29.98R WCI  -9
CHETEK         FLURRIES   4  -2  76 NW5       29.96R WCI  -6
LADYSMITH      CLOUDY     6   0  77 NW15G24   29.91R WCI -12
EAU CLAIRE     CLOUDY     6  -3  66 NW14      29.96R WCI -11
MENOMONIE      PTCLDY     7  -1  70 NW13      29.98R WCI -10
NEW RICHMOND   CLOUDY     4  -3  72 NW17      30.02R WCI -15
OSCEOLA        CLEAR      5  -2  71 NW10      30.07R WCI -10
$$

WIZ003>005-009-010-017-018-091200-
NORTH CENTRAL WISCONSIN

CITY           SKY/WX    TMP DP  RH WIND       PRES   REMARKS
MANITOWISH WTR LGT SNOW  10   6  83 N10       29.78R WCI  -4
ARBOR VITAE    LGT SNOW  11   7  82 N10       29.77R WCI  -2
WOODRUFF       LGT SNOW  11   7  82 N10       29.77R WCI  -2
RHINELANDER    FLURRIES  10   4  76 NW6       29.75R WCI   0
EAGLE RIVER    LGT SNOW  10   4  77 N13       29.75R WCI  -5
LAND O LAKES   LGT SNOW  10   6  82 N14G20    29.76R WCI  -6
PHILLIPS       CLOUDY     7   2  80 NW15G21   29.82R WCI -11
TOMAHAWK       LGT SNOW   9   5  84 NW7       29.79R WCI  -3
MEDFORD        FLURRIES   6   1  80 NW10G18   29.81R WCI  -8
MERRILL        LGT SNOW   9   5  82 NW7       29.80R WCI  -2
$$

WIZ029-030-035-036-043>047-091200-
CENTRAL WISCONSIN

CITY           SKY/WX    TMP DP  RH WIND       PRES   REMARKS
WAUSAU         LGT SNOW  10   5  80 NW9       29.79R WCI  -3
MOSINEE        NOT AVBL
MARSHFIELD     CLOUDY     7  -1  70 NW18      29.82R WCI -12
STEVENS POINT  FLURRIES   7   1  78 NW8       29.81S WCI  -6
WAUPACA        FLURRIES  12   5  72 W9        29.81R WCI   0
WAUTOMA        CLOUDY    10   3  73 NW15      29.83R WCI  -7
WISC RAPIDS    PTCLDY     8  -1  66 NW14G22   29.85R WCI  -8
CAMP DOUGLAS   CLOUDY     9   3  78 NW16G24   29.87R WCI  -9
$$

WIZ011>013-019>022-031-037>040-048>050-091200-
NORTHEAST WISCONSIN

CITY           SKY/WX    TMP DP  RH WIND       PRES   REMARKS
ANTIGO         LGT SNOW   8   4  86 NW10      29.74R WCI  -7
SHAWANO        FLURRIES  15   9  75 W5        29.79R WCI   8
OCONTO         CLOUDY    15   7  71 NW10G17   29.77R WCI   2
STURGEON BAY   CLOUDY    14   5  67 NW17      29.75S WCI  -3
GREEN BAY      MOCLDY    12   8  84 NW8       29.78R WCI   0
MANITOWOC      PTCLDY    13   9  84 NW12      29.75S WCI  -1
APPLETON       NOT AVBL
CLINTONVILLE   FLURRIES  14   7  73 NW12      29.79R WCI   0
OSHKOSH        FLURRIES  11   4  73 NW13      29.78R WCI  -4
$$

WIZ032>034-041-042-053>061-091200-
SOUTHWEST WISCONSIN

CITY           SKY/WX    TMP DP  RH WIND       PRES   REMARKS
LA CROSSE      CLOUDY     9   0  67 NW15      29.96R WCI  -8
SPARTA         FLURRIES   8   1  76 NW7G18    29.93R WCI  -4
VIROQUA        CLEAR      6   0  77 NW14      29.87R WCI -11
BOSCOBEL       CLOUDY    11   1  64 N14G21    29.92R WCI  -5
PRAIRIE DU CHI PTCLDY    11   1  64 NW15      29.94R WCI  -5
PLATTEVILLE    CLEAR     10   4  77 NW12G18   29.86R WCI  -4
$$

WIZ056-057-062-063-064-067-068-091200-
SOUTH CENTRAL WISCONSIN

CITY           SKY/WX    TMP DP  RH WIND       PRES   REMARKS
REEDSBURG      MOCLDY     9   2  75 NW12      29.85R WCI  -6
BARABOO/DELLS  CLEAR      8   2  75 NW12G20   29.83R WCI  -7
LONE ROCK      FLURRIES  11   3  70 NW13      29.88R WCI  -4
MINERAL POINT  FLURRIES  12   5  73 NW18      29.82R WCI  -5
MADISON        CLOUDY    11   4  73 N14       29.81R WCI  -5
MIDDLETON      CLOUDY    12   5  73 NW16      29.82R WCI  -5
WATERTOWN      FLURRIES  12   8  84 NW13      29.79R WCI  -3
MONROE         FLURRIES  12   7  79 NW12G23   29.79R WCI  -2
JANESVILLE     FLURRIES  16  10  79 NW13      29.80R WCI   2
$$

WIZ051-052-058>065-066-070>072-091200-
SOUTHEAST WISCONSIN

CITY           SKY/WX    TMP DP  RH WIND       PRES   REMARKS
MILWAUKEE      LGT SNOW  16  10  77 NW13      29.75R WCI   2
WAUKESHA       LGT SNOW  12   9  85 NW13G20   29.76R WCI  -3
MILWAUKEE/TIMM LGT SNOW  16  10  79 NW13      29.77R WCI   2
RACINE         FLURRIES  17  10  74 NW12      29.76R WCI   4
BURLINGTON     LGT SNOW  13   8  81 NW12G20   29.77R WCI  -1
KENOSHA        LGT SNOW  16  11  80 NW12G21   29.75R WCI   3
FOND DU LAC    PTCLDY    11   5  77 NW14      29.78R WCI  -5
SHEBOYGAN      CLOUDY    14   8  77 NW12      29.75R WCI   0
WEST BEND      FLURRIES  14   9  79 NW10G18   29.76R WCI   1
JUNEAU         FLURRIES  10   5  80 NW9       29.79R WCI  -2
$$

LSZ147-162-091200-
LAKE SUPERIOR

STATION/POSITION TIME  TEMP    WIND        PRES    WAVE
                       AIR SEA DIR/SP/G            HT/PER
                 (UTC) (F)     (DEG/KT/KT) (MB)    (FT/S)
DEVILS ISLAND    1100   11     360/ 23/ 29 1016.5R
PORT WING        1000   11     340/ 20/ 25 1015.9
SAXON HARBOR     1020   15                 1012.5R
$$

LMZ867-665-643>646-091200-
LAKE MICHIGAN

STATION/POSITION TIME  TEMP    WIND        PRES    WAVE
                       AIR SEA DIR/SP/G            HT/PER
                 (UTC) (F)     (DEG/KT/KT) (MB)    (FT/S)
CHAMBERS ISLAND  1000   15     300/ 15/ 24 1007.1
ALGOMA LAKESHORE 1011          330/ 14/ 19   N/A
KEWAUNEE LAKESHO 1100   15     320/ 12/ 19 1006.4S
SHEBOYGAN LAKESH 1100   15     310/ 12/ 15 1008.7R
PORT WASHINGTON  1000   17     310/  6/ 13 1008.5
MILWAUKEE LAKESH 1110   17     320/ 13/ 17   N/A
KENOSHA   LAKESH 1100   17     320/ 11/ 18 1007.5R
$$

TC  - TEMPERATURE IN CELSIUS
VSB - VISIBILITY IN STATUTE MILES
WCI - WIND CHILL INDEX
HX  - HEAT INDEX




USA.gov is the U.S. government's official web portal to all federal, state and local government web resources and services.